STARLINK-33879 (63634 NORAD) Tracking and Keplerian Element Data

This shows tracking and keplerian element data for the satellite.

Feedback or suggestion? Click here.




ElementValue
Catalog63634
NameSTARLINK-33879
Epoch Orbit3787
Epoch Day353.98881118
Epoch Year2025
RAAN95.6642
Inclination42.9989
Eccentricity0.0001906
Argument of Perigee275.0691
Mean Anonmoly84.9943
Mean Motion15.27587258
Decay Rate0.00013976
L11 63634U 25083A 25353.98881118 .00013976 00000+0 51632-3 0 9997
L22 63634 42.9989 95.6642 0001906 275.0691 84.9943 15.27587258 37875



Live tracking and technical data element details for STARLINK-33879 (NORAD 63634). STARLINK-33879 can be tracked NOW for your location showing map with azimuth and elevation plus other details from your city location.







IsCatalogInMostPopularTable: catalog: 63634, numindb: 9
Update: records affected: 1



GetName: 63634 STARLINK-33879

Hit Count: updated at: Tue, 21 Apr 2026 20:15:09 GMT